Grand Rapids, MN

8:48 PM CST on February 10, 2016 (GMT -0600)
Grand Rapids-Itasca County-Newstrom Field

Weather History for KGPZ - December, 2011

Change the Weather History Date:

Tuesday, December 20, 2011

  Actual Average Record
Temperature  
Mean Temperature 24 °F -  
Max Temperature 33 °F 19 °F 45 °F (1923)
Min Temperature 15 °F 0 °F -39 °F (1983)
Degree Days  
Heating Degree Days 41    
Moisture  
Dew Point 13 °F    
Average Humidity 64    
Maximum Humidity 80    
Minimum Humidity 44    
Precipitation  
Precipitation 0.00 in - - ()
Sea Level Pressure  
Sea Level Pressure 29.90 in    
Wind  
Wind Speed 10 mph (SSW)    
Max Wind Speed 18 mph    
Max Gust Speed 25 mph    
Visibility 10 miles    
Events      
Averages and records for this station are not official NWS values.
T = Trace of Precipitation, MM = Missing Value Source: NWS Daily Summary

Daily Weather History Graph

Daily Weather History Graph

Search for Another Location

Airport or City:

Trip Planner

Search our weather history database for the weather conditions in past years. The results will help you decide how hot, cold, wet, or windy it might be!

Date:

Astronomy

Dec. 20, 2011 Rise Set
Actual Time 7:57 AM CST 4:26 PM CST
Civil Twilight 7:21 AM CST 5:01 PM CST
Nautical Twilight 6:42 AM CST 5:40 PM CST
Astronomical Twilight 6:05 AM CST 6:18 PM CST
Moon 3:09 AM CST (12/20) 1:10 PM CST (12/20)
Length of Visible Light 9h 40m
Length of Day
8h 28m
Waning Crescent, 21% of the Moon is Illuminated
Dec 20
Waning Crescent
Dec 24
New
Jan 1
First Quarter
Jan 9
Full
Jan 16
Last Quarter

Hourly Weather History & Observations

Time (CST) Temp. Windchill Dew Point Humidity Pressure Visibility Wind Dir Wind Speed Gust Speed Precip Events Conditions
12:15 AM 21.2 °F 10.9 °F 12.2 °F 68% 30.19 in 10.0 mi SSW 9.2 mph - N/A   Overcast
12:35 AM 21.2 °F 11.7 °F 12.2 °F 68% 30.18 in 10.0 mi SSW 8.1 mph - N/A   Overcast
12:55 AM 21.2 °F 13.6 °F 12.2 °F 68% 30.18 in 10.0 mi SW 5.8 mph - N/A   Overcast
1:15 AM 21.2 °F 12.6 °F 12.2 °F 68% 30.18 in 10.0 mi SW 6.9 mph - N/A   Overcast
1:35 AM 21.2 °F 12.6 °F 12.2 °F 68% 30.16 in 10.0 mi WSW 6.9 mph - N/A   Overcast
1:55 AM 19.4 °F 11.5 °F 12.2 °F 74% 30.15 in 10.0 mi SSW 5.8 mph - N/A   Mostly Cloudy
2:15 AM 19.4 °F 10.4 °F 10.4 °F 68% 30.14 in 10.0 mi South 6.9 mph - N/A   Clear
2:35 AM 17.6 °F 8.2 °F 10.4 °F 73% 30.12 in 10.0 mi South 6.9 mph - N/A   Clear
2:55 AM 17.6 °F 7.3 °F 10.4 °F 73% 30.11 in 10.0 mi South 8.1 mph - N/A   Clear
3:15 AM 17.6 °F 8.2 °F 10.4 °F 73% 30.11 in 10.0 mi South 6.9 mph - N/A   Clear
3:35 AM 17.6 °F 7.3 °F 10.4 °F 73% 30.08 in 10.0 mi South 8.1 mph - N/A   Clear
3:55 AM 17.6 °F 6.4 °F 10.4 °F 73% 30.07 in 10.0 mi South 9.2 mph - N/A   Clear
4:15 AM 17.6 °F 7.3 °F 10.4 °F 73% 30.06 in 10.0 mi South 8.1 mph - N/A   Clear
4:35 AM 17.6 °F 8.2 °F 10.4 °F 73% 30.05 in 10.0 mi South 6.9 mph - N/A   Clear
4:55 AM 15.8 °F 4.2 °F 10.4 °F 79% 30.03 in 10.0 mi South 9.2 mph - N/A   Clear
5:15 AM 15.8 °F 3.4 °F 10.4 °F 79% 30.01 in 10.0 mi South 10.4 mph - N/A   Clear
5:35 AM 17.6 °F 5.7 °F 10.4 °F 73% 30.00 in 10.0 mi South 10.4 mph - N/A   Clear
5:55 AM 17.6 °F 6.4 °F 10.4 °F 73% 30.00 in 10.0 mi SSW 9.2 mph - N/A   Clear
6:15 AM 15.8 °F 3.4 °F 10.4 °F 79% 29.99 in 10.0 mi South 10.4 mph - N/A   Clear
6:35 AM 17.6 °F 6.4 °F 10.4 °F 73% 29.97 in 10.0 mi South 9.2 mph - N/A   Clear
6:55 AM 17.6 °F 6.4 °F 10.4 °F 73% 29.96 in 10.0 mi South 9.2 mph 18.4 mph N/A   Partly Cloudy
7:15 AM 17.6 °F 5.0 °F 10.4 °F 73% 29.95 in 10.0 mi South 11.5 mph - N/A   Scattered Clouds
7:35 AM 17.6 °F 4.3 °F 10.4 °F 73% 29.94 in 10.0 mi SSW 12.7 mph 19.6 mph N/A   Partly Cloudy
7:55 AM 17.6 °F 5.7 °F 12.2 °F 79% 29.96 in 10.0 mi SSW 10.4 mph 16.1 mph N/A   Clear
8:15 AM 17.6 °F 5.7 °F 12.2 °F 79% 29.94 in 10.0 mi South 10.4 mph - N/A   Partly Cloudy
8:35 AM 17.6 °F 5.0 °F 12.2 °F 79% 29.93 in 10.0 mi South 11.5 mph - N/A   Clear
8:55 AM 17.6 °F 5.0 °F 12.2 °F 79% 29.92 in 10.0 mi South 11.5 mph - N/A   Clear
9:15 AM 19.4 °F 7.2 °F 14.0 °F 80% 29.91 in 10.0 mi South 11.5 mph - N/A   Partly Cloudy
9:35 AM 19.4 °F 7.2 °F 14.0 °F 80% 29.90 in 10.0 mi South 11.5 mph - N/A   Clear
9:55 AM 21.2 °F 8.9 °F 15.8 °F 80% 29.89 in 10.0 mi South 12.7 mph - N/A   Clear
10:15 AM 23.0 °F 11.7 °F 15.8 °F 74% 29.88 in 10.0 mi South 11.5 mph 17.3 mph N/A   Clear
10:35 AM 24.8 °F 11.9 °F 15.8 °F 69% 29.86 in 10.0 mi South 16.1 mph - N/A   Clear
10:55 AM 26.6 °F 15.7 °F 15.8 °F 64% 29.84 in 10.0 mi SSW 12.7 mph 17.3 mph N/A   Clear
11:15 AM 26.6 °F 16.2 °F 15.8 °F 64% 29.83 in 10.0 mi SSW 11.5 mph 18.4 mph N/A   Clear
11:35 AM 26.6 °F 16.2 °F 15.8 °F 64% 29.81 in 10.0 mi SSW 11.5 mph 17.3 mph N/A   Clear
11:55 AM 28.4 °F 18.5 °F 15.8 °F 59% 29.79 in 10.0 mi South 11.5 mph 18.4 mph N/A   Clear
12:15 PM 30.2 °F 20.8 °F 15.8 °F 55% 29.79 in 10.0 mi SW 11.5 mph 18.4 mph N/A   Clear
12:35 PM 30.2 °F 21.3 °F 15.8 °F 55% 29.78 in 10.0 mi SSW 10.4 mph - N/A   Clear
12:55 PM 32.0 °F 23.0 °F 15.8 °F 51% 29.77 in 10.0 mi SSW 11.5 mph 17.3 mph N/A   Clear
1:15 PM 32.0 °F 22.5 °F 15.8 °F 51% 29.74 in 10.0 mi SSW 12.7 mph 19.6 mph N/A   Clear
1:35 PM 33.8 °F 23.5 °F 15.8 °F 48% 29.72 in 10.0 mi SSW 16.1 mph 21.9 mph N/A   Clear
1:55 PM 33.8 °F 24.3 °F 14.0 °F 44% 29.71 in 10.0 mi SSW 13.8 mph 23.0 mph N/A   Clear
2:15 PM 33.8 °F 23.2 °F 14.0 °F 44% 29.70 in 10.0 mi SSW 17.3 mph 25.3 mph N/A   Clear
2:35 PM 33.8 °F 23.9 °F 14.0 °F 44% 29.69 in 10.0 mi SSW 15.0 mph 25.3 mph N/A   Clear
2:55 PM 33.8 °F 22.8 °F 14.0 °F 44% 29.67 in 10.0 mi South 18.4 mph 25.3 mph N/A   Clear
3:15 PM 33.8 °F 24.3 °F 14.0 °F 44% 29.67 in 10.0 mi SSW 13.8 mph 25.3 mph N/A   Clear
3:35 PM 33.8 °F 24.8 °F 14.0 °F 44% 29.67 in 10.0 mi South 12.7 mph 18.4 mph N/A   Clear
3:55 PM 32.0 °F 24.2 °F 14.0 °F 48% 29.68 in 10.0 mi South 9.2 mph 16.1 mph N/A   Clear
4:15 PM 30.2 °F 22.6 °F 12.2 °F 47% 29.68 in 10.0 mi SSW 8.1 mph - N/A   Clear
4:35 PM 30.2 °F 21.3 °F 12.2 °F 47% 29.67 in 10.0 mi South 10.4 mph - N/A   Clear
4:55 PM 30.2 °F 20.8 °F 12.2 °F 47% 29.66 in 10.0 mi South 11.5 mph 17.3 mph N/A   Clear
5:15 PM 28.4 °F 18.5 °F 12.2 °F 51% 29.66 in 10.0 mi South 11.5 mph 16.1 mph N/A   Clear
5:35 PM 28.4 °F 18.5 °F 12.2 °F 51% 29.65 in 10.0 mi South 11.5 mph - N/A   Clear
5:55 PM 28.4 °F 19.1 °F 12.2 °F 51% 29.64 in 10.0 mi South 10.4 mph - N/A   Clear
6:15 PM 28.4 °F 18.0 °F 12.2 °F 51% 29.64 in 10.0 mi South 12.7 mph - N/A   Clear
6:35 PM 28.4 °F 18.5 °F 12.2 °F 51% 29.64 in 10.0 mi South 11.5 mph - N/A   Clear
6:55 PM 28.4 °F 17.5 °F 12.2 °F 51% 29.63 in 10.0 mi South 13.8 mph - N/A   Clear
7:15 PM 28.4 °F 18.0 °F 12.2 °F 51% 29.62 in 10.0 mi South 12.7 mph 18.4 mph N/A   Clear
7:35 PM 28.4 °F 18.0 °F 12.2 °F 51% 29.62 in 10.0 mi South 12.7 mph 18.4 mph N/A   Clear
7:55 PM 28.4 °F 17.5 °F 12.2 °F 51% 29.62 in 10.0 mi South 13.8 mph 17.3 mph N/A   Clear
8:15 PM 26.6 °F 16.2 °F 14.0 °F 59% 29.61 in 10.0 mi South 11.5 mph 18.4 mph N/A   Clear
8:35 PM 28.4 °F 17.0 °F 15.8 °F 59% 29.60 in 10.0 mi South 15.0 mph - N/A   Clear
8:55 PM 28.4 °F 18.5 °F 15.8 °F 59% 29.61 in 10.0 mi South 11.5 mph - N/A   Clear
9:15 PM 28.4 °F 19.7 °F 15.8 °F 59% 29.61 in 10.0 mi SSW 9.2 mph - N/A   Clear
9:35 PM 28.4 °F 18.0 °F 15.8 °F 59% 29.60 in 10.0 mi SSW 12.7 mph - N/A   Clear
9:55 PM 28.4 °F 19.7 °F 15.8 °F 59% 29.60 in 10.0 mi SSW 9.2 mph - N/A   Clear
10:15 PM 28.4 °F 19.1 °F 15.8 °F 59% 29.60 in 10.0 mi SSW 10.4 mph - N/A   Clear
10:35 PM 28.4 °F 18.0 °F 15.8 °F 59% 29.58 in 10.0 mi South 12.7 mph - N/A   Clear
10:55 PM 28.4 °F 20.4 °F 15.8 °F 59% 29.58 in 10.0 mi South 8.1 mph - N/A   Clear
11:15 PM 28.4 °F 19.7 °F 15.8 °F 59% 29.58 in 10.0 mi SSW 9.2 mph - N/A   Mostly Cloudy
11:35 PM 28.4 °F 19.7 °F 15.8 °F 59% 29.58 in 10.0 mi South 9.2 mph - N/A   Overcast
11:55 PM 28.4 °F 19.7 °F 15.8 °F 59% 29.58 in 10.0 mi SSW 9.2 mph - N/A   Overcast